| time (UTC) | temp F | wind direction | speed MPH | gust MPH | rain 1hr in | rain 24hr in | rain mn in | humidity % | barometer mb |
| 20260507092145 | 68 | 16 | 6.0 | 8.0 | 0.00 | 0.00 | 0.00 | 81 | 1011.8 |
| 20260507091641 | 68 | 320 | 6.0 | 14.0 | 0.00 | 0.00 | 0.00 | 81 | 1011.6 |
| 20260507091137 | 69 | 35 | 8.0 | 11.0 | 0.00 | 0.00 | 0.00 | 80 | 1011.5 |
| 20260507090633 | 69 | 15 | 5.0 | 6.0 | 0.00 | 0.00 | 0.00 | 80 | 1011.6 |
| 20260507090131 | 69 | 24 | 6.0 | 8.0 | 0.00 | 0.00 | 0.00 | 80 | 1011.5 |
| 20260507085627 | 69 | 358 | 9.0 | 13.0 | 0.00 | 0.00 | 0.00 | 80 | 1011.5 |
| 20260507085124 | 69 | 329 | 10.0 | 13.0 | 0.00 | 0.00 | 0.00 | 80 | 1011.6 |
| 20260507084621 | 69 | 319 | 6.0 | 9.0 | 0.00 | 0.00 | 0.00 | 80 | 1011.6 |
| 20260507084118 | 69 | 23 | 8.0 | 9.0 | 0.00 | 0.00 | 0.00 | 80 | 1011.8 |
| 20260507083615 | 69 | 51 | 9.0 | 11.0 | 0.00 | 0.00 | 0.00 | 80 | 1011.6 |
| 20260507083112 | 69 | 34 | 10.0 | 11.0 | 0.00 | 0.00 | 0.00 | 79 | 1011.5 |
| 20260507082607 | 69 | 27 | 6.0 | 7.0 | 0.00 | 0.00 | 0.00 | 79 | 1011.6 |
| 20260507082104 | 69 | 30 | 6.0 | 7.0 | 0.00 | 0.00 | 0.00 | 79 | 1011.5 |
| 20260507081600 | 69 | 14 | 6.0 | 9.0 | 0.00 | 0.00 | 0.00 | 79 | 1011.4 |
| 20260507081057 | 69 | 22 | 3.0 | 4.0 | 0.00 | 0.00 | 0.00 | 79 | 1011.6 |
| 20260507080553 | 69 | 348 | 4.0 | 6.0 | 0.00 | 0.00 | 0.00 | 79 | 1011.5 |
| 20260507080050 | 69 | 51 | 3.0 | 4.0 | 0.00 | 0.00 | 0.00 | 79 | 1011.7 |
| 20260507075545 | 69 | 37 | 6.0 | 9.0 | 0.00 | 0.00 | 0.00 | 79 | 1011.9 |
| 20260507075041 | 69 | 41 | 5.0 | 6.0 | 0.00 | 0.00 | 0.00 | 79 | 1011.9 |
| 20260507074538 | 69 | 11 | 4.0 | 4.0 | 0.00 | 0.00 | 0.00 | 79 | 1011.9 |
| 20260507074037 | 69 | 18 | 4.0 | 7.0 | 0.00 | 0.00 | 0.00 | 79 | 1012.1 |
| 20260507073533 | 69 | 56 | 5.0 | 6.0 | 0.00 | 0.00 | 0.00 | 78 | 1012.0 |
| 20260507073029 | 69 | 286 | 7.0 | 9.0 | 0.00 | 0.00 | 0.00 | 79 | 1011.8 |
| 20260507072527 | 69 | 350 | 13.0 | 15.0 | 0.00 | 0.00 | 0.00 | 78 | 1011.7 |
| 20260507072024 | 69 | 306 | 4.0 | 4.0 | 0.00 | 0.00 | 0.00 | 79 | 1011.8 |
| 20260507071521 | 70 | 344 | 8.0 | 9.0 | 0.00 | 0.00 | 0.00 | 78 | 1011.9 |
| 20260507071018 | 70 | 26 | 4.0 | 4.0 | 0.00 | 0.00 | 0.00 | 78 | 1012.0 |
| 20260507070515 | 70 | 13 | 6.0 | 9.0 | 0.00 | 0.00 | 0.00 | 78 | 1012.0 |
| 20260507070013 | 70 | 351 | 4.0 | 8.0 | 0.00 | 0.00 | 0.00 | 78 | 1012.1 |
| 20260507065508 | 70 | 289 | 5.0 | 6.0 | 0.00 | 0.00 | 0.00 | 78 | 1012.1 |
| 20260507065005 | 70 | 328 | 10.0 | 11.0 | 0.00 | 0.00 | 0.00 | 78 | 1011.9 |
| 20260507064504 | 70 | 43 | 6.0 | 8.0 | 0.00 | 0.00 | 0.00 | 78 | 1012.0 |
| 20260507064001 | 70 | 264 | 3.0 | 4.0 | 0.00 | 0.00 | 0.00 | 78 | 1012.0 |
| 20260507063458 | 71 | 279 | 6.0 | 7.0 | 0.00 | 0.00 | 0.00 | 77 | 1012.0 |
| 20260507062955 | 71 | 12 | 12.0 | 13.0 | 0.00 | 0.00 | 0.00 | 77 | 1011.8 |
| 20260507062452 | 71 | 2 | 7.0 | 9.0 | 0.00 | 0.00 | 0.00 | 77 | 1011.9 |
| 20260507061949 | 71 | 16 | 6.0 | 8.0 | 0.00 | 0.00 | 0.00 | 77 | 1011.8 |
| 20260507061447 | 71 | 352 | 6.0 | 7.0 | 0.00 | 0.00 | 0.00 | 77 | 1011.7 |
| 20260507060946 | 71 | 335 | 8.0 | 14.0 | 0.00 | 0.00 | 0.00 | 77 | 1011.7 |
| 20260507060442 | 71 | 326 | 9.0 | 10.0 | 0.00 | 0.00 | 0.00 | 77 | 1011.6 |
| 20260507055939 | 72 | 347 | 9.0 | 11.0 | 0.00 | 0.00 | 0.00 | 77 | 1011.6 |
| 20260507055434 | 72 | 61 | 6.0 | 7.0 | 0.00 | 0.00 | 0.00 | 77 | 1011.7 |
| 20260507054931 | 72 | 59 | 4.0 | 6.0 | 0.00 | 0.00 | 0.00 | 77 | 1011.5 |
| 20260507054427 | 72 | 246 | 5.0 | 6.0 | 0.00 | 0.00 | 0.00 | 77 | 1011.6 |
| 20260507053925 | 72 | 36 | 7.0 | 9.0 | 0.00 | 0.00 | 0.00 | 77 | 1011.4 |
| 20260507053422 | 72 | 55 | 6.0 | 6.0 | 0.00 | 0.00 | 0.00 | 77 | 1011.3 |
| 20260507052921 | 73 | 28 | 4.0 | 6.0 | 0.00 | 0.00 | 0.00 | 77 | 1011.1 |
| 20260507052417 | 73 | 28 | 4.0 | 6.0 | 0.00 | 0.00 | 0.00 | 77 | 1011.1 |
| 20260507051914 | 73 | 28 | 4.0 | 6.0 | 0.00 | 0.00 | 0.00 | 77 | 1011.3 |
| 20260507051412 | 73 | 28 | 4.0 | 6.0 | 0.00 | 0.00 | 0.00 | 77 | 1011.4 |
| 20260507050909 | 73 | 28 | 4.0 | 6.0 | 0.00 | 0.00 | 0.00 | 77 | 1011.5 |
| 20260507050405 | 74 | 28 | 6.0 | 8.0 | 0.00 | 0.00 | 0.00 | 76 | 1011.5 |
| 20260507045902 | 74 | 28 | 6.0 | 8.0 | 0.00 | 0.00 | 0.00 | 76 | 1011.6 |
| 20260507045359 | 74 | 28 | 6.0 | 8.0 | 0.00 | 0.00 | 0.00 | 76 | 1011.6 |
| 20260507044856 | 74 | 28 | 6.0 | 8.0 | 0.00 | 0.00 | 0.00 | 76 | 1011.5 |
| 20260507044353 | 74 | 30 | 3.0 | 4.0 | 0.00 | 0.00 | 0.00 | 77 | 1011.4 |
| 20260507043848 | 74 | 349 | 9.0 | 13.0 | 0.00 | 0.00 | 0.00 | 77 | 1011.3 |
| 20260507043345 | 74 | 356 | 6.0 | 7.0 | 0.00 | 0.00 | 0.00 | 77 | 1011.2 |
| 20260507042841 | 74 | 356 | 6.0 | 7.0 | 0.00 | 0.00 | 0.00 | 77 | 1011.4 |
| 20260507042337 | 74 | 341 | 9.0 | 10.0 | 0.00 | 0.00 | 0.00 | 77 | 1011.5 |
| 20260507041834 | 74 | 326 | 6.0 | 9.0 | 0.00 | 0.00 | 0.00 | 77 | 1011.4 |
| 20260507041331 | 74 | 347 | 9.0 | 10.0 | 0.00 | 0.00 | 0.00 | 77 | 1011.4 |
| 20260507040828 | 76 | 326 | 6.0 | 7.0 | 0.00 | 0.00 | 0.00 | 77 | 1011.5 |
| 20260507040324 | 76 | 326 | 6.0 | 7.0 | 0.00 | 0.00 | 0.00 | 77 | 1011.5 |
| 20260507035820 | 76 | 326 | 6.0 | 7.0 | 0.00 | 0.00 | 0.00 | 77 | 1011.4 |
| 20260507035316 | 76 | 326 | 6.0 | 7.0 | 0.00 | 0.00 | 0.00 | 77 | 1011.2 |
| 20260507034814 | 76 | 326 | 6.0 | 7.0 | 0.00 | 0.00 | 0.00 | 77 | 1011.3 |
| 20260507034310 | 76 | 326 | 6.0 | 7.0 | 0.00 | 0.00 | 0.00 | 77 | 1011.3 |
| 20260507033809 | 76 | 326 | 6.0 | 7.0 | 0.00 | 0.00 | 0.00 | 77 | 1011.1 |
| 20260507033306 | 76 | 326 | 6.0 | 7.0 | 0.00 | 0.00 | 0.00 | 77 | 1011.0 |
| 20260507032803 | 76 | 326 | 6.0 | 7.0 | 0.00 | 0.00 | 0.00 | 77 | 1011.0 |
| 20260507032259 | 76 | 326 | 6.0 | 7.0 | 0.00 | 0.00 | 0.00 | 77 | 1010.6 |
| 20260507031755 | 76 | 326 | 6.0 | 7.0 | 0.00 | 0.00 | 0.00 | 77 | 1010.7 |
| 20260507031252 | 76 | 326 | 6.0 | 7.0 | 0.00 | 0.00 | 0.00 | 77 | 1010.6 |
| 20260507030749 | 78 | 307 | 4.0 | 7.0 | 0.00 | 0.00 | 0.00 | 78 | 1010.7 |
| 20260507030247 | 78 | 307 | 4.0 | 7.0 | 0.00 | 0.00 | 0.00 | 78 | 1010.4 |
| 20260507025743 | 78 | 307 | 4.0 | 7.0 | 0.00 | 0.00 | 0.00 | 78 | 1010.1 |
| 20260507025240 | 78 | 307 | 4.0 | 7.0 | 0.00 | 0.00 | 0.00 | 78 | 1010.2 |
| 20260507024739 | 78 | 307 | 4.0 | 7.0 | 0.00 | 0.00 | 0.00 | 78 | 1009.9 |
| 20260507024236 | 78 | 307 | 4.0 | 7.0 | 0.00 | 0.00 | 0.00 | 78 | 1009.9 |
| 20260507023731 | 78 | 307 | 4.0 | 7.0 | 0.00 | 0.00 | 0.00 | 78 | 1009.6 |
| 20260507023229 | 78 | 307 | 4.0 | 7.0 | 0.00 | 0.00 | 0.00 | 78 | 1009.6 |
| 20260507022726 | 78 | 307 | 4.0 | 7.0 | 0.00 | 0.00 | 0.00 | 78 | 1009.5 |
| 20260507022221 | 79 | 342 | 8.0 | 9.0 | 0.00 | 0.00 | 0.00 | 77 | 1009.1 |
| 20260507021718 | 79 | 342 | 8.0 | 9.0 | 0.00 | 0.00 | 0.00 | 77 | 1009.4 |
| 20260507021213 | 79 | 342 | 8.0 | 9.0 | 0.00 | 0.00 | 0.00 | 77 | 1009.3 |
| 20260507020712 | 79 | 342 | 8.0 | 9.0 | 0.00 | 0.00 | 0.00 | 77 | 1009.2 |
| 20260507020208 | 79 | 342 | 8.0 | 9.0 | 0.00 | 0.00 | 0.00 | 77 | 1009.2 |
| 20260507015706 | 79 | 342 | 8.0 | 9.0 | 0.00 | 0.00 | 0.00 | 77 | 1008.9 |
| 20260507015203 | 79 | 342 | 8.0 | 9.0 | 0.00 | 0.00 | 0.00 | 77 | 1009.0 |
| 20260507014659 | 80 | 328 | 8.0 | 9.0 | 0.00 | 0.00 | 0.00 | 77 | 1009.0 |
| 20260507014155 | 81 | 323 | 7.0 | 11.0 | 0.00 | 0.00 | 0.00 | 78 | 1009.1 |
| 20260507013652 | 83 | 200 | 3.0 | 3.0 | 0.00 | 0.00 | 0.00 | 81 | 1008.7 |
| 20260507013150 | 83 | 200 | 3.0 | 3.0 | 0.00 | 0.00 | 0.00 | 81 | 1008.6 |
| 20260507012647 | 83 | 200 | 3.0 | 3.0 | 0.00 | 0.00 | 0.00 | 81 | 1008.2 |
| 20260507012142 | 83 | 194 | 6.0 | 7.0 | 0.00 | 0.00 | 0.00 | 81 | 1008.3 |
| 20260507011641 | 83 | 179 | 4.0 | 7.0 | 0.00 | 0.00 | 0.00 | 80 | 1008.2 |
| 20260507011137 | 83 | 179 | 4.0 | 7.0 | 0.00 | 0.00 | 0.00 | 80 | 1008.0 |
| 20260507010631 | 83 | 202 | 2.0 | 3.0 | 0.00 | 0.00 | 0.00 | 81 | 1008.0 |
| 20260507010128 | 83 | 191 | 4.0 | 6.0 | 0.00 | 0.00 | 0.00 | 80 | 1007.8 |
| 20260507005625 | 83 | 191 | 4.0 | 6.0 | 0.00 | 0.00 | 0.00 | 80 | 1007.7 |
| 20260507005121 | 0 | 0.0 | 0.0 | 0.00 | 0.00 | 0.00 | 1007.9 | ||
| 20260507004618 | 0 | 0.0 | 0.0 | 0.00 | 0.00 | 0.00 | 1007.7 | ||
| 20260507004116 | 0 | 0.0 | 0.0 | 0.00 | 0.00 | 0.00 | 1007.6 | ||
| 20260507003612 | 0 | 0.0 | 0.0 | 0.00 | 0.00 | 0.00 | 1007.2 | ||
| 20260507003107 | 0 | 0.0 | 0.0 | 0.00 | 0.00 | 0.00 | 1007.6 | ||
| 20260507002604 | 0 | 0.0 | 0.0 | 0.00 | 0.00 | 0.00 | 1007.5 | ||
| 20260507002059 | 0 | 0.0 | 0.0 | 0.00 | 0.00 | 0.00 | 1007.6 | ||
| 20260507001556 | 0 | 0.0 | 0.0 | 0.00 | 0.00 | 0.00 | 1007.6 | ||
| 20260507001054 | 0 | 0.0 | 0.0 | 0.00 | 0.00 | 0.00 | 1007.3 | ||
| 20260507000550 | 0 | 0.0 | 0.0 | 0.00 | 0.00 | 0.00 | 1007.3 | ||
| 20260507000045 | 0 | 0.0 | 0.0 | 0.00 | 0.00 | 0.00 | 1007.5 | ||
| 20260506235543 | 0 | 0.0 | 0.0 | 0.00 | 0.00 | 0.00 | 1007.5 | ||
| 20260506235038 | 0 | 0.0 | 0.0 | 0.00 | 0.00 | 0.00 | 1007.5 | ||
| 20260506234536 | 0 | 0.0 | 0.0 | 0.00 | 0.00 | 0.00 | 1007.4 | ||
| 20260506234033 | 0 | 0.0 | 0.0 | 0.00 | 0.00 | 0.00 | 1007.5 | ||
| 20260506233530 | 0 | 0.0 | 0.0 | 0.00 | 0.00 | 0.00 | 1007.2 | ||
| 20260506233027 | 0 | 0.0 | 0.0 | 0.00 | 0.00 | 0.00 | 1007.1 | ||
| 20260506232523 | 0 | 0.0 | 0.0 | 0.00 | 0.00 | 0.00 | 1007.0 | ||
| 20260506232018 | 0 | 0.0 | 0.0 | 0.00 | 0.00 | 0.00 | 1007.1 | ||
| 20260506231516 | 0 | 0.0 | 0.0 | 0.00 | 0.00 | 0.00 | 1007.0 | ||
| 20260506231014 | 0 | 0.0 | 0.0 | 0.00 | 0.00 | 0.00 | 1007.0 | ||
| 20260506230510 | 0 | 0.0 | 0.0 | 0.00 | 0.00 | 0.00 | 1007.0 | ||
| 20260506230008 | 0 | 0.0 | 0.0 | 0.00 | 0.00 | 0.00 | 1007.1 | ||
| 20260506225504 | 0 | 0.0 | 0.0 | 0.00 | 0.00 | 0.00 | 1007.1 | ||
| 20260506225000 | 0 | 0.0 | 0.0 | 0.00 | 0.00 | 0.00 | 1007.1 | ||
| 20260506224457 | 0 | 0.0 | 0.0 | 0.00 | 0.00 | 0.00 | 1006.9 | ||
| 20260506223954 | 0 | 0.0 | 0.0 | 0.00 | 0.00 | 0.00 | 1006.9 | ||
| 20260506223450 | 0 | 0.0 | 0.0 | 0.00 | 0.00 | 0.00 | 1007.0 | ||
| 20260506222947 | 0 | 0.0 | 0.0 | 0.00 | 0.00 | 0.00 | 1006.8 | ||
| 20260506222444 | 0 | 0.0 | 0.0 | 0.00 | 0.00 | 0.00 | 1006.8 | ||
| 20260506221940 | 0 | 0.0 | 0.0 | 0.00 | 0.00 | 0.00 | 1006.8 | ||
| 20260506221437 | 0 | 0.0 | 0.0 | 0.00 | 0.00 | 0.00 | 1006.7 | ||
| 20260506220936 | 0 | 0.0 | 0.0 | 0.00 | 0.00 | 0.00 | 1006.7 | ||
| 20260506220431 | 0 | 0.0 | 0.0 | 0.00 | 0.00 | 0.00 | 1006.9 | ||
| 20260506215927 | 0 | 0.0 | 0.0 | 0.00 | 0.00 | 0.00 | 1006.7 | ||
| 20260506215424 | 0 | 0.0 | 0.0 | 0.00 | 0.00 | 0.00 | 1006.6 | ||
| 20260506214920 | 0 | 0.0 | 0.0 | 0.00 | 0.00 | 0.00 | 1006.6 | ||
| 20260506214417 | 0 | 0.0 | 0.0 | 0.00 | 0.00 | 0.00 | 1006.7 | ||
| 20260506213914 | 0 | 0.0 | 0.0 | 0.00 | 0.00 | 0.00 | 1006.9 | ||
| 20260506213412 | 0 | 0.0 | 0.0 | 0.00 | 0.00 | 0.00 | 1006.7 | ||
| 20260506212909 | 0 | 0.0 | 0.0 | 0.00 | 0.00 | 0.00 | 1006.7 | ||
| 20260506212405 | 0 | 0.0 | 0.0 | 0.00 | 0.00 | 0.00 | 1007.0 | ||
| 20260506211859 | 0 | 0.0 | 0.0 | 0.00 | 0.00 | 0.00 | 1006.9 | ||
| 20260506211356 | 0 | 0.0 | 0.0 | 0.00 | 0.00 | 0.00 | 1006.9 | ||
| 20260506210853 | 0 | 0.0 | 0.0 | 0.00 | 0.00 | 0.00 | 1006.9 | ||
| 20260506210350 | 0 | 0.0 | 0.0 | 0.00 | 0.00 | 0.00 | 1007.1 | ||
| 20260506205847 | 0 | 0.0 | 0.0 | 0.00 | 0.00 | 0.00 | 1007.1 | ||
| 20260506205343 | 0 | 0.0 | 0.0 | 0.00 | 0.00 | 0.00 | 1007.2 | ||
| 20260506204840 | 0 | 0.0 | 0.0 | 0.00 | 0.00 | 0.00 | 1007.2 | ||
| 20260506204337 | 0 | 0.0 | 0.0 | 0.00 | 0.00 | 0.00 | 1007.1 | ||
| 20260506203835 | 0 | 0.0 | 0.0 | 0.00 | 0.00 | 0.00 | 1007.2 | ||
| 20260506203332 | 0 | 0.0 | 0.0 | 0.00 | 0.00 | 0.00 | 1007.2 | ||
| 20260506202829 | 0 | 0.0 | 0.0 | 0.00 | 0.00 | 0.00 | 1007.2 | ||
| 20260506202326 | 0 | 0.0 | 0.0 | 0.00 | 0.00 | 0.00 | 1007.5 | ||
| 20260506201822 | 0 | 0.0 | 0.0 | 0.00 | 0.00 | 0.00 | 1007.5 | ||
| 20260506201320 | 0 | 0.0 | 0.0 | 0.00 | 0.00 | 0.00 | 1007.5 | ||
| 20260506200816 | 0 | 0.0 | 0.0 | 0.00 | 0.00 | 0.00 | 1007.4 | ||
| 20260506200312 | 0 | 0.0 | 0.0 | 0.00 | 0.00 | 0.00 | 1007.6 | ||
| 20260506195809 | 0 | 0.0 | 0.0 | 0.00 | 0.00 | 0.00 | 1007.6 | ||
| 20260506195306 | 0 | 0.0 | 0.0 | 0.00 | 0.00 | 0.00 | 1007.7 | ||
| 20260506194803 | 0 | 0.0 | 0.0 | 0.00 | 0.00 | 0.00 | 1007.7 | ||
| 20260506194259 | 0 | 0.0 | 0.0 | 0.00 | 0.00 | 0.00 | 1007.6 | ||
| 20260506193757 | 0 | 0.0 | 0.0 | 0.00 | 0.00 | 0.00 | 1007.6 | ||
| 20260506193254 | 0 | 0.0 | 0.0 | 0.00 | 0.00 | 0.00 | 1007.7 | ||
| 20260506192750 | 0 | 0.0 | 0.0 | 0.00 | 0.00 | 0.00 | 1007.7 | ||
| 20260506192247 | 0 | 0.0 | 0.0 | 0.00 | 0.00 | 0.00 | 1007.6 | ||
| 20260506191743 | 0 | 0.0 | 0.0 | 0.00 | 0.00 | 0.00 | 1007.9 | ||
| 20260506191240 | 0 | 0.0 | 0.0 | 0.00 | 0.00 | 0.00 | 1007.9 | ||
| 20260506190737 | 0 | 0.0 | 0.0 | 0.00 | 0.00 | 0.00 | 1008.0 | ||
| 20260506190234 | 0 | 0.0 | 0.0 | 0.00 | 0.00 | 0.00 | 1008.2 | ||
| 20260506185731 | 0 | 0.0 | 0.0 | 0.00 | 0.00 | 0.00 | 1008.0 | ||
| 20260506185227 | 0 | 0.0 | 0.0 | 0.00 | 0.00 | 0.00 | 1008.1 | ||
| 20260506184725 | 0 | 0.0 | 0.0 | 0.00 | 0.00 | 0.00 | 1008.3 | ||
| 20260506184222 | 0 | 0.0 | 0.0 | 0.00 | 0.00 | 0.00 | 1008.2 | ||
| 20260506183719 | 0 | 0.0 | 0.0 | 0.00 | 0.00 | 0.00 | 1008.5 | ||
| 20260506183214 | 0 | 0.0 | 0.0 | 0.00 | 0.00 | 0.00 | 1008.4 | ||
| 20260506182711 | 0 | 0.0 | 0.0 | 0.00 | 0.00 | 0.00 | 1008.6 | ||
| 20260506182209 | 0 | 0.0 | 0.0 | 0.00 | 0.00 | 0.00 | 1008.5 | ||
| 20260506181706 | 0 | 0.0 | 0.0 | 0.00 | 0.00 | 0.00 | 1008.9 | ||
| 20260506181204 | 0 | 0.0 | 0.0 | 0.00 | 0.00 | 0.00 | 1008.8 | ||
| 20260506180700 | 0 | 0.0 | 0.0 | 0.00 | 0.00 | 0.00 | 1009.0 | ||
| 20260506180156 | 0 | 0.0 | 0.0 | 0.00 | 0.00 | 0.00 | 1008.9 | ||
| 20260506175653 | 0 | 0.0 | 0.0 | 0.00 | 0.00 | 0.00 | 1009.0 | ||
| 20260506175151 | 0 | 0.0 | 0.0 | 0.00 | 0.00 | 0.00 | 1009.1 | ||
| 20260506174649 | 0 | 0.0 | 0.0 | 0.00 | 0.00 | 0.00 | 1009.2 | ||
| 20260506174145 | 0 | 0.0 | 0.0 | 0.00 | 0.00 | 0.00 | 1009.3 | ||
| 20260506173643 | 82 | 163 | 1.0 | 2.0 | 0.00 | 0.00 | 0.00 | 82 | 1009.3 |
| 20260506173140 | 82 | 163 | 1.0 | 2.0 | 0.00 | 0.00 | 0.00 | 82 | 1009.4 |
| 20260506172636 | 82 | 163 | 1.0 | 2.0 | 0.00 | 0.00 | 0.00 | 82 | 1009.4 |
| 20260506172133 | 82 | 163 | 1.0 | 2.0 | 0.00 | 0.00 | 0.00 | 82 | 1009.6 |
| 20260506171631 | 82 | 163 | 1.0 | 2.0 | 0.00 | 0.00 | 0.00 | 82 | 1009.4 |
| 20260506171128 | 82 | 163 | 1.0 | 2.0 | 0.00 | 0.00 | 0.00 | 82 | 1009.7 |
| 20260506170626 | 82 | 163 | 1.0 | 2.0 | 0.00 | 0.00 | 0.00 | 82 | 1009.6 |
| 20260506170122 | 82 | 163 | 1.0 | 2.0 | 0.00 | 0.00 | 0.00 | 82 | 1009.7 |
| 20260506165621 | 82 | 163 | 1.0 | 2.0 | 0.00 | 0.00 | 0.00 | 82 | 1009.6 |
| 20260506165117 | 82 | 163 | 1.0 | 2.0 | 0.00 | 0.00 | 0.00 | 82 | 1009.6 |
| 20260506164614 | 82 | 163 | 1.0 | 2.0 | 0.00 | 0.00 | 0.00 | 82 | 1009.5 |
| 20260506164112 | 82 | 163 | 1.0 | 2.0 | 0.00 | 0.00 | 0.00 | 82 | 1010.0 |
| 20260506163607 | 0 | 0.0 | 0.0 | 0.00 | 0.00 | 0.00 | 1009.7 | ||
| 20260506163103 | 0 | 0.0 | 0.0 | 0.00 | 0.00 | 0.00 | 1009.6 | ||
| 20260506162559 | 0 | 0.0 | 0.0 | 0.00 | 0.00 | 0.00 | 1009.4 | ||
| 20260506162057 | 0 | 0.0 | 0.0 | 0.00 | 0.00 | 0.00 | 1009.5 | ||
| 20260506161554 | 0 | 0.0 | 0.0 | 0.00 | 0.00 | 0.00 | 1009.4 | ||
| 20260506161051 | 0 | 0.0 | 0.0 | 0.00 | 0.00 | 0.00 | 1009.6 | ||
| 20260506160549 | 0 | 0.0 | 0.0 | 0.00 | 0.00 | 0.00 | 1009.3 | ||
| 20260506160045 | 0 | 0.0 | 0.0 | 0.00 | 0.00 | 0.00 | 1009.3 | ||
| 20260506155544 | 0 | 0.0 | 0.0 | 0.00 | 0.00 | 0.00 | 1009.5 | ||
| 20260506153715 | 0 | 0.0 | 0.0 | 0.00 | 0.00 | 0.00 | 1009.3 | ||
| 20260506153212 | 0 | 0.0 | 0.0 | 0.00 | 0.00 | 0.00 | 1009.2 | ||
| 20260506152709 | 0 | 0.0 | 0.0 | 0.00 | 0.00 | 0.00 | 1008.9 | ||
| 20260506152207 | 0 | 0.0 | 0.0 | 0.00 | 0.00 | 0.00 | 1008.9 | ||
| 20260506151706 | 0 | 0.0 | 0.0 | 0.00 | 0.00 | 0.00 | 1008.9 | ||
| 20260506151201 | 0 | 0.0 | 0.0 | 0.00 | 0.00 | 0.00 | 1008.6 | ||
| 20260506150658 | 0 | 0.0 | 0.0 | 0.00 | 0.00 | 0.00 | 1008.7 | ||
| 20260506150155 | 0 | 0.0 | 0.0 | 0.00 | 0.00 | 0.00 | 1008.8 | ||
| 20260506145652 | 0 | 0.0 | 0.0 | 0.00 | 0.00 | 0.00 | 1008.7 | ||
| 20260506145149 | 0 | 0.0 | 0.0 | 0.00 | 0.00 | 0.00 | 1008.6 | ||
| 20260506144647 | 0 | 0.0 | 0.0 | 0.00 | 0.00 | 0.00 | 1008.4 | ||
| 20260506144143 | 0 | 0.0 | 0.0 | 0.00 | 0.00 | 0.00 | 1008.3 | ||
| 20260506143641 | 0 | 0.0 | 0.0 | 0.00 | 0.00 | 0.00 | 1008.2 | ||
| 20260506143139 | 0 | 0.0 | 0.0 | 0.00 | 0.00 | 0.00 | 1008.3 | ||
| 20260506142637 | 0 | 0.0 | 0.0 | 0.00 | 0.00 | 0.00 | 1008.3 | ||
| 20260506142135 | 0 | 0.0 | 0.0 | 0.00 | 0.00 | 0.00 | 1008.2 | ||
| 20260506141632 | 0 | 0.0 | 0.0 | 0.00 | 0.00 | 0.00 | 1008.2 | ||
| 20260506141130 | 0 | 0.0 | 0.0 | 0.00 | 0.00 | 0.00 | 1008.3 | ||
| 20260506140627 | 0 | 0.0 | 0.0 | 0.00 | 0.00 | 0.00 | 1008.4 | ||
| 20260506140124 | 0 | 0.0 | 0.0 | 0.00 | 0.00 | 0.00 | 1008.5 | ||
| 20260506135621 | 0 | 0.0 | 0.0 | 0.00 | 0.00 | 0.00 | 1008.4 | ||
| 20260506135118 | 0 | 0.0 | 0.0 | 0.00 | 0.00 | 0.00 | 1008.6 | ||
| 20260506134614 | 0 | 0.0 | 0.0 | 0.00 | 0.00 | 0.00 | 1008.4 | ||
| 20260506134110 | 0 | 0.0 | 0.0 | 0.00 | 0.00 | 0.00 | 1008.5 | ||
| 20260506133608 | 0 | 0.0 | 0.0 | 0.00 | 0.00 | 0.00 | 1008.5 | ||
| 20260506133104 | 0 | 0.0 | 0.0 | 0.00 | 0.00 | 0.00 | 1008.7 | ||
| 20260506132602 | 0 | 0.0 | 0.0 | 0.00 | 0.00 | 0.00 | 1008.5 | ||
| 20260506132058 | 0 | 0.0 | 0.0 | 0.00 | 0.00 | 0.00 | 1008.7 | ||
| 20260506131556 | 0 | 0.0 | 0.0 | 0.00 | 0.00 | 0.00 | 1008.6 | ||
| 20260506131052 | 0 | 0.0 | 0.0 | 0.00 | 0.00 | 0.00 | 1008.6 | ||
| 20260506130549 | 0 | 0.0 | 0.0 | 0.00 | 0.00 | 0.00 | 1008.5 | ||
| 20260506130047 | 0 | 0.0 | 0.0 | 0.00 | 0.00 | 0.00 | 1008.7 | ||
| 20260506125545 | 77 | 145 | 3.0 | 3.0 | 0.00 | 0.00 | 0.00 | 93 | 1008.4 |
| 20260506125042 | 77 | 145 | 3.0 | 3.0 | 0.00 | 0.00 | 0.00 | 93 | 1008.7 |
| 20260506124540 | 77 | 145 | 3.0 | 3.0 | 0.00 | 0.00 | 0.00 | 93 | 1008.4 |
| 20260506124037 | 77 | 145 | 3.0 | 3.0 | 0.00 | 0.00 | 0.00 | 93 | 1008.5 |
| 20260506123535 | 77 | 145 | 3.0 | 3.0 | 0.00 | 0.00 | 0.00 | 93 | 1008.7 |
| 20260506123033 | 77 | 145 | 3.0 | 3.0 | 0.00 | 0.00 | 0.00 | 93 | 1008.6 |
| 20260506122529 | 77 | 145 | 3.0 | 3.0 | 0.00 | 0.00 | 0.00 | 93 | 1008.3 |
| 20260506122028 | 77 | 145 | 3.0 | 3.0 | 0.00 | 0.00 | 0.00 | 93 | 1008.3 |
| 20260506121525 | 77 | 145 | 3.0 | 3.0 | 0.00 | 0.00 | 0.00 | 93 | 1008.4 |
| 20260506121021 | 77 | 145 | 3.0 | 3.0 | 0.00 | 0.00 | 0.00 | 93 | 1008.1 |
| 20260506120519 | 77 | 145 | 3.0 | 3.0 | 0.00 | 0.00 | 0.00 | 93 | 1008.2 |
| 20260506120016 | 77 | 145 | 3.0 | 3.0 | 0.00 | 0.00 | 0.00 | 93 | 1008.2 |
| 20260506115514 | 0 | 0.0 | 0.0 | 0.00 | 0.00 | 0.00 | 1008.1 | ||
| 20260506115012 | 0 | 0.0 | 0.0 | 0.00 | 0.00 | 0.00 | 1007.9 | ||
| 20260506114509 | 0 | 0.0 | 0.0 | 0.00 | 0.00 | 0.00 | 1007.9 | ||
| 20260506114008 | 0 | 0.0 | 0.0 | 0.00 | 0.00 | 0.00 | 1007.9 | ||
| 20260506113505 | 0 | 0.0 | 0.0 | 0.00 | 0.00 | 0.00 | 1007.7 | ||
| 20260506113002 | 0 | 0.0 | 0.0 | 0.00 | 0.00 | 0.00 | 1007.8 | ||
| 20260506112459 | 0 | 0.0 | 0.0 | 0.00 | 0.00 | 0.00 | 1007.6 | ||
| 20260506111956 | 0 | 0.0 | 0.0 | 0.00 | 0.00 | 0.00 | 1007.5 | ||
| 20260506111454 | 0 | 0.0 | 0.0 | 0.00 | 0.00 | 0.00 | 1007.6 | ||
| 20260506110951 | 0 | 0.0 | 0.0 | 0.00 | 0.00 | 0.00 | 1007.5 | ||
| 20260506110449 | 0 | 0.0 | 0.0 | 0.00 | 0.00 | 0.00 | 1007.4 | ||
| 20260506105945 | 0 | 0.0 | 0.0 | 0.00 | 0.00 | 0.00 | 1007.2 | ||
| 20260506105441 | 0 | 0.0 | 0.0 | 0.00 | 0.00 | 0.00 | 1007.3 | ||
| 20260506104939 | 0 | 0.0 | 0.0 | 0.00 | 0.00 | 0.00 | 1007.3 | ||
| 20260506104437 | 0 | 0.0 | 0.0 | 0.00 | 0.00 | 0.00 | 1007.5 | ||
| 20260506103935 | 0 | 0.0 | 0.0 | 0.00 | 0.00 | 0.00 | 1007.3 | ||
| 20260506103432 | 0 | 0.0 | 0.0 | 0.00 | 0.00 | 0.00 | 1007.1 | ||
| 20260506102929 | 0 | 0.0 | 0.0 | 0.00 | 0.00 | 0.00 | 1007.4 | ||
| 20260506102427 | 0 | 0.0 | 0.0 | 0.00 | 0.00 | 0.00 | 1007.4 | ||
| 20260506101924 | 0 | 0.0 | 0.0 | 0.00 | 0.00 | 0.00 | 1007.5 | ||
| 20260506101420 | 0 | 0.0 | 0.0 | 0.00 | 0.00 | 0.00 | 1007.2 | ||
| 20260506100917 | 0 | 0.0 | 0.0 | 0.00 | 0.00 | 0.00 | 1007.1 | ||
| 20260506100416 | 0 | 0.0 | 0.0 | 0.00 | 0.00 | 0.00 | 1007.3 | ||
| 20260506095913 | 0 | 0.0 | 0.0 | 0.00 | 0.00 | 0.00 | 1007.3 | ||
| 20260506095412 | 0 | 0.0 | 0.0 | 0.00 | 0.00 | 0.00 | 1007.3 | ||
| 20260506094907 | 0 | 0.0 | 0.0 | 0.00 | 0.00 | 0.00 | 1007.1 | ||
| 20260506094406 | 0 | 0.0 | 0.0 | 0.00 | 0.00 | 0.00 | 1007.2 | ||
| 20260506093904 | 0 | 0.0 | 0.0 | 0.00 | 0.00 | 0.00 | 1007.4 | ||
| 20260506093401 | 0 | 0.0 | 0.0 | 0.00 | 0.00 | 0.00 | 1007.1 | ||
| 20260506092859 | 0 | 0.0 | 0.0 | 0.00 | 0.00 | 0.00 | 1007.2 |